Previsão horária em Allmendingen

Hoje, 14 Junho, Segunda-feira

Tempo Temperatura Precipitação Vento Pressão Humidade
00:00 +10°C° 0 mm 2 m/s 714 mmHg 88%
01:00 +10°C° 0 mm 2 m/s 714 mmHg 87%
02:00 +9°C° 0 mm 2 m/s 713 mmHg 89%
03:00 +9°C° 0 mm 2 m/s 713 mmHg 90%
04:00 +9°C° 0 mm 2 m/s 713 mmHg 91%
05:00 +10°C° 0 mm 2 m/s 713 mmHg 87%
06:00 +12°C° 0 mm 2 m/s 713 mmHg 84%
07:00 +13°C° 0 mm 2 m/s 713 mmHg 79%
08:00 +14°C° 0 mm 3 m/s 713 mmHg 75%
09:00 +17°C° 0 mm 3 m/s 713 mmHg 70%
10:00 +19°C° 0 mm 3 m/s 713 mmHg 65%
11:00 +19°C° 0 mm 3 m/s 713 mmHg 63%
12:00 +20°C° 0 mm 3 m/s 713 mmHg 61%
13:00 +21°C° 0 mm 3 m/s 713 mmHg 59%
14:00 +23°C° 0 mm 2 m/s 712 mmHg 60%
15:00 +23°C° 0 mm 2 m/s 712 mmHg 60%
16:00 +23°C° 0 mm 2 m/s 712 mmHg 60%
17:00 +21°C° 0 mm 2 m/s 711 mmHg 68%
18:00 +20°C° 0 mm 2 m/s 711 mmHg 75%
19:00 +19°C° 0 mm 2 m/s 711 mmHg 82%
20:00 +18°C° 0 mm 2 m/s 711 mmHg 83%
21:00 +16°C° 0 mm 1 m/s 711 mmHg 85%
22:00 +14°C° 0 mm 1 m/s 711 mmHg 86%
23:00 +14°C° 0 mm 1 m/s 711 mmHg 86%

Amanhã, 15 Junho, Terça-feira

Tempo Temperatura Precipitação Vento Pressão Humidade
00:00 +13°C° 0 mm 1 m/s 710 mmHg 86%
01:00 +13°C° 0 mm 1 m/s 710 mmHg 86%
02:00 +12°C° 0 mm 1 m/s 710 mmHg 85%
03:00 +11°C° 0 mm 0 m/s 710 mmHg 85%
04:00 +11°C° 0 mm 0 m/s 710 mmHg 85%
05:00 +12°C° 0 mm 0 m/s 710 mmHg 82%
06:00 +13°C° 0 mm 0 m/s 710 mmHg 80%
07:00 +15°C° 0 mm 0 m/s 711 mmHg 77%
08:00 +19°C° 0 mm 1 m/s 711 mmHg 73%
09:00 +20°C° 0 mm 1 m/s 711 mmHg 68%
10:00 +22°C° 0 mm 1 m/s 711 mmHg 63%
11:00 +23°C° 0 mm 1 m/s 711 mmHg 61%
12:00 +24°C° 0 mm 1 m/s 711 mmHg 59%
13:00 +24°C° 0 mm 2 m/s 711 mmHg 57%
14:00 +25°C° 0 mm 2 m/s 711 mmHg 57%
15:00 +25°C° 0 mm 2 m/s 711 mmHg 58%
16:00 +25°C° 0 mm 2 m/s 711 mmHg 58%
17:00 +24°C° 0 mm 1 m/s 710 mmHg 64%
18:00 +23°C° 0 mm 1 m/s 710 mmHg 71%
19:00 +22°C° 0 mm 1 m/s 710 mmHg 78%
20:00 +20°C° 0 mm 1 m/s 710 mmHg 80%
21:00 +19°C° 0 mm 1 m/s 710 mmHg 81%
22:00 +15°C° 0 mm 0 m/s 710 mmHg 83%
23:00 +15°C° 0 mm 0 m/s 710 mmHg 83%

Depois de amanhã, 16 Junho, Quarta-feira

Tempo Temperatura Precipitação Vento Pressão Humidade
00:00 +14°C° 0 mm 0 m/s 709 mmHg 84%
01:00 +14°C° 0 mm 0 m/s 709 mmHg 84%
02:00 +14°C° 0 mm 0 m/s 709 mmHg 84%
03:00 +13°C° 0 mm 0 m/s 709 mmHg 85%
04:00 +13°C° 0 mm 0 m/s 709 mmHg 85%
05:00 +14°C° 0 mm 0 m/s 709 mmHg 84%
06:00 +16°C° 0 mm 1 m/s 709 mmHg 82%
07:00 +19°C° 0 mm 1 m/s 709 mmHg 81%
08:00 +20°C° 0 mm 1 m/s 709 mmHg 77%
09:00 +21°C° 0 mm 1 m/s 709 mmHg 73%
10:00 +23°C° 0 mm 2 m/s 709 mmHg 69%
11:00 +24°C° 0 mm 2 m/s 709 mmHg 66%
12:00 +24°C° 0 mm 2 m/s 709 mmHg 64%
13:00 +25°C° 0 mm 2 m/s 709 mmHg 61%
14:00 +25°C° 0 mm 2 m/s 709 mmHg 64%
15:00 +25°C° 0 mm 2 m/s 709 mmHg 66%
16:00 +25°C° 0 mm 2 m/s 708 mmHg 69%
17:00 +24°C° 0 mm 2 m/s 708 mmHg 73%
18:00 +23°C° 0 mm 2 m/s 708 mmHg 78%
19:00 +21°C° 0 mm 2 m/s 708 mmHg 82%
20:00 +20°C° 0 mm 2 m/s 708 mmHg 84%
21:00 +18°C° 0 mm 2 m/s 707 mmHg 85%
22:00 +17°C° 0 mm 2 m/s 707 mmHg 86%
23:00 +18°C° 0 mm 1 m/s 707 mmHg 86%

17 Junho, Quinta-feira

Tempo Temperatura Precipitação Vento Pressão Humidade
00:00 +16°C° 0 mm 1 m/s 707 mmHg 86%
01:00 +16°C° 0 mm 1 m/s 707 mmHg 86%
02:00 +15°C° 0 mm 1 m/s 707 mmHg 87%
03:00 +15°C° 0 mm 1 m/s 707 mmHg 87%
04:00 +14°C° 0 mm 1 m/s 707 mmHg 88%
05:00 +16°C° 0 mm 1 m/s 707 mmHg 86%
06:00 +18°C° 0 mm 1 m/s 707 mmHg 83%
07:00 +19°C° 0 mm 1 m/s 708 mmHg 81%
08:00 +21°C° 0 mm 1 m/s 708 mmHg 76%
09:00 +23°C° 0 mm 1 m/s 708 mmHg 71%
10:00 +25°C° 0 mm 1 m/s 708 mmHg 66%
11:00 +26°C° 0 mm 1 m/s 708 mmHg 63%
12:00 +27°C° 0 mm 2 m/s 708 mmHg 61%
13:00 +27°C° 0 mm 2 m/s 708 mmHg 59%
14:00 +27°C° 0 mm 2 m/s 708 mmHg 60%
15:00 +28°C° 0 mm 2 m/s 707 mmHg 61%
16:00 +28°C° 0 mm 3 m/s 707 mmHg 62%
17:00 +26°C° 0 mm 3 m/s 707 mmHg 69%
18:00 +25°C° 0 mm 3 m/s 706 mmHg 76%
19:00 +24°C° 0 mm 3 m/s 706 mmHg 82%
20:00 +21°C° 0 mm 2 m/s 706 mmHg 84%
21:00 +20°C° 0 mm 2 m/s 706 mmHg 85%
22:00 +20°C° 0 mm 1 m/s 706 mmHg 87%
23:00 +18°C° 0.1 mm 2 m/s 706 mmHg 89%

18 Junho, Sexta-feira

Tempo Temperatura Precipitação Vento Pressão Humidade
00:00 +18°C° 0.1 mm 2 m/s 706 mmHg 91%
01:00 +17°C° 0.1 mm 3 m/s 707 mmHg 92%
02:00 +16°C° 0.3 mm 3 m/s 707 mmHg 93%
03:00 +16°C° 0.3 mm 2 m/s 707 mmHg 93%
04:00 +16°C° 0.3 mm 2 m/s 707 mmHg 94%
05:00 +16°C° 0.1 mm 2 m/s 707 mmHg 92%
06:00 +18°C° 0.1 mm 1 m/s 707 mmHg 91%
07:00 +19°C° 0.1 mm 1 m/s 708 mmHg 90%
08:00 +21°C° 0 mm 1 m/s 708 mmHg 83%
09:00 +23°C° 0 mm 1 m/s 708 mmHg 76%
10:00 +24°C° 0 mm 1 m/s 708 mmHg 70%
11:00 +25°C° 0 mm 1 m/s 708 mmHg 67%
12:00 +26°C° 0 mm 1 m/s 709 mmHg 63%
13:00 +27°C° 0 mm 1 m/s 709 mmHg 60%
14:00 +27°C° 0.3 mm 1 m/s 709 mmHg 62%
15:00 +27°C° 0.3 mm 1 m/s 709 mmHg 64%
16:00 +27°C° 0.3 mm 1 m/s 709 mmHg 66%
17:00 +26°C° 0.8 mm 1 m/s 709 mmHg 72%
18:00 +24°C° 0.8 mm 1 m/s 709 mmHg 78%
19:00 +23°C° 0.8 mm 2 m/s 709 mmHg 84%
20:00 +22°C° 0.3 mm 1 m/s 709 mmHg 86%
21:00 +20°C° 0.3 mm 1 m/s 710 mmHg 88%
22:00 +19°C° 0.3 mm 1 m/s 710 mmHg 90%
23:00 +19°C° 0 mm 1 m/s 710 mmHg 90%

19 Junho, Sábado

Tempo Temperatura Precipitação Vento Pressão Humidade
00:00 +18°C° 0 mm 1 m/s 710 mmHg 90%
01:00 +18°C° 0 mm 1 m/s 710 mmHg 89%
02:00 +18°C° 0 mm 1 m/s 710 mmHg 90%
03:00 +18°C° 0 mm 1 m/s 710 mmHg 90%
04:00 +16°C° 0 mm 1 m/s 710 mmHg 90%
05:00 +18°C° 0 mm 1 m/s 710 mmHg 89%
06:00 +19°C° 0 mm 1 m/s 711 mmHg 88%
07:00 +21°C° 0 mm 1 m/s 711 mmHg 87%
08:00 +22°C° 0 mm 1 m/s 711 mmHg 82%
09:00 +24°C° 0 mm 1 m/s 711 mmHg 76%
10:00 +25°C° 0 mm 2 m/s 711 mmHg 71%
11:00 +26°C° 0 mm 2 m/s 711 mmHg 68%
12:00 +27°C° 0 mm 3 m/s 711 mmHg 66%
13:00 +27°C° 0 mm 3 m/s 710 mmHg 64%
14:00 +27°C° 0 mm 4 m/s 710 mmHg 65%
15:00 +28°C° 0 mm 4 m/s 710 mmHg 66%
16:00 +28°C° 0 mm 4 m/s 710 mmHg 67%
17:00 +27°C° 0 mm 4 m/s 709 mmHg 72%
18:00 +26°C° 0 mm 4 m/s 709 mmHg 77%
19:00 +25°C° 0 mm 3 m/s 709 mmHg 82%
20:00 +24°C° 0 mm 3 m/s 708 mmHg 84%
21:00 +22°C° 0 mm 3 m/s 708 mmHg 86%
22:00 +21°C° 0 mm 3 m/s 708 mmHg 87%
23:00 +20°C° 0 mm 3 m/s 707 mmHg 88%
Mostrar mais